[[{"header":{"parameterUnit":"m.s-1","parameterCategory":1,"la1":30.2991,"la2":30.254,"lo1":-89.0895,"lo2":-89.0444,"dy":0.0017,"dx":0.0017,"nx":28,"ny":28,"refTime":"2025-05-22T21:00:00:Z","depth":0,"parameterNumber":2,"parameterNumberName":"U-component_of_WINDS"},"data":[0,0,0,0,0,0,0,0,0,0,0,0,0,0,0,0,0,0,0,0,0,0,0,0,0,0,0,0,0,0,0,0,0,0,0,0,0,0,0,0,0,0,0,0,0,0,0,0,0,0,0,0,0,0,0,0,0,0,0.1981,0.1981,0,0.203,0.203,0.2031,0.2056,0.2056,0.2056,0.2056,0.2105,0.2107,0.2108,0,0,0,0,0,0,0,0,0,0,0,0,0,0.1908,0.1909,0.1981,0.1981,0.1982,0.203,0.203,0.2031,0.2056,0.2056,0.2056,0.2056,0.2105,0.2106,0.2108,0,0,0,0,0,0,0,0,0,0,0,0,0,0.1947,0.191,0.1981,0.2,0.2003,0.203,0.203,0.2031,0.2056,0.2056,0.2056,0.2056,0.2104,0.2106,0.2108,0.2119,0,0,0.2114,0.2115,0,0,0,0,0,0,0,0,0.1944,0.1949,0.1997,0.1999,0.2002,0.2037,0.2023,0.2061,0.2056,0.2036,0.2056,0.2056,0.2082,0.2086,0.2095,0.2121,0.2123,0.2114,0.2115,0.2116,0.2117,0,0,0,0,0,0,0,0.1942,0.1947,0.2,0.1998,0.2,0.2006,0.2012,0.203,0.2058,0.2038,0.204,0.2045,0.2084,0.2093,0.2097,0.2124,0.2114,0.2116,0.2117,0.2118,0.2162,0.2162,0,0,0,0,0,0,0.1936,0.1945,0.1999,0.2002,0.1973,0.2008,0.2014,0.2026,0.2058,0.2063,0.2045,0.2046,0.209,0.2094,0.2098,0.2114,0.2116,0.2118,0.2119,0.2162,0.2162,0.2162,0,0,0,0,0,0,0.1934,0.1941,0.1997,0.1974,0.1982,0.2009,0.2022,0.2027,0.2036,0.2064,0.2069,0.205,0.209,0.2096,0.2114,0.2116,0.2119,0.2121,0.2162,0.2162,0.2162,0.2144,0,0,0,0,0,0,0.1932,0.194,0.1945,0.1974,0.1983,0.2012,0.2022,0.2027,0.204,0.2041,0.2069,0.2074,0.2091,0.2111,0.2116,0.2118,0.2122,0.2162,0.2162,0.2162,0.2144,0.2143,0.2142,0,0,0,0,0,0.193,0.1937,0.1945,0.1951,0.1989,0.2012,0.2017,0.2036,0.204,0.2044,0.2062,0.2073,0.2115,0.2113,0.2118,0.2121,0.2162,0.2162,0.2162,0.2145,0.2144,0.2142,0,0,0,0,0,0,0.1907,0.1941,0.195,0.1968,0.1987,0.2016,0.2023,0.2034,0.2052,0.2053,0.2076,0.2082,0.2098,0.2111,0.2108,0.2134,0.2139,0.214,0.2124,0.2123,0.2122,0.2119,0.2124,0,0,0,0,0,0.1904,0.192,0.1949,0.1962,0.1971,0.1995,0.2005,0.2019,0.2039,0.2047,0.2066,0.2085,0.2103,0.2114,0.2131,0.2146,0.2153,0.2151,0.215,0.2149,0.215,0.2159,0.2159,0.2162,0.2162,0.2162,0,0,0.1898,0.1919,0.1928,0.1958,0.1974,0.199,0.2002,0.2018,0.2029,0.205,0.2068,0.2083,0.2105,0.2122,0.2131,0.2134,0.2151,0.2149,0.2148,0.215,0.2159,0.2159,0.2159,0.2162,0.2162,0.2162,0,0,0.1896,0.1913,0.1926,0.1942,0.1967,0.1983,0.1985,0.2013,0.2024,0.2043,0.2058,0.2072,0.2102,0.2118,0.2129,0.2133,0.2144,0.2138,0.2132,0.2141,0.2141,0.2141,0.2142,0.2142,0.2138,0.2138,0.2138,0,0.1886,0.191,0.1931,0.1946,0.1959,0.1978,0.1991,0.2005,0.2034,0.2042,0.2046,0.2083,0.21,0.2121,0.2122,0.213,0.2134,0.2135,0.2139,0.2139,0.2139,0.2141,0.2142,0.2137,0.2137,0.2138,0.2138,0,0.1896,0.1913,0.192,0.1948,0.1962,0.1975,0.1998,0.2009,0.2021,0.2036,0.2055,0.2076,0.2098,0.2104,0.2115,0.2126,0.2128,0.2135,0.2141,0.2138,0.214,0.2141,0.2136,0.2136,0.2137,0.2137,0,0,0.1882,0.1921,0.1923,0.1936,0.1964,0.1978,0.1992,0.2014,0.2023,0.2042,0.2055,0.208,0.2086,0.21,0.2113,0.2121,0.2122,0.2127,0.2128,0.2126,0.2136,0.2131,0.2131,0.213,0.213,0.213,0.2134,0,0.1884,0.1911,0.193,0.195,0.1966,0.1984,0.1997,0.2016,0.2031,0.2046,0.2062,0.2079,0.2087,0.2095,0.2103,0.212,0.2125,0.212,0.2142,0.2142,0.2136,0.2132,0.2127,0.213,0.2135,0.2135,0.2135,0,0.189,0.1909,0.1931,0.1958,0.1965,0.1976,0.1998,0.2012,0.2034,0.2044,0.2059,0.2072,0.2088,0.2093,0.2115,0.2111,0.2121,0.2131,0.2132,0.2135,0.2139,0.2136,0.2131,0.2132,0.2137,0.2137,0.2137,0,0.1878,0.1908,0.1926,0.1936,0.1968,0.1975,0.1989,0.201,0.2022,0.2041,0.2049,0.2069,0.208,0.2095,0.2114,0.2115,0.2134,0.214,0.2143,0.2143,0.2147,0.2146,0.2144,0.2152,0.2152,0.2152,0.2152,0,0.1878,0.1891,0.1921,0.1931,0.1946,0.1967,0.1981,0.1996,0.2015,0.2028,0.2045,0.2058,0.2081,0.2096,0.2111,0.2127,0.2132,0.2141,0.2145,0.214,0.2139,0.2147,0.2147,0.2152,0.2152,0.2152,0.2152,0,0.1867,0.1887,0.1907,0.1936,0.1943,0.1953,0.1977,0.1988,0.2003,0.202,0.2026,0.205,0.2069,0.2089,0.2114,0.2124,0.214,0.2145,0.2133,0.2135,0.2137,0.2137,0.2141,0.2142,0.2148,0.2148,0.2148,0,0.1866,0.1877,0.1906,0.1917,0.193,0.1946,0.1959,0.198,0.1992,0.2017,0.2025,0.2045,0.2062,0.2091,0.2111,0.213,0.2136,0.2136,0.2139,0.2134,0.2137,0.2136,0.2137,0.2136,0.2135,0.2135,0.2135,0,0.1863,0.1873,0.189,0.1911,0.1926,0.1943,0.1961,0.1969,0.1993,0.2006,0.2025,0.2039,0.2065,0.2084,0.2106,0.212,0.2132,0.2134,0.2136,0.2131,0.2124,0.2128,0.213,0.2134,0.2134,0.2134,0.2134,0.2134,0.1858,0.1868,0.189,0.1909,0.1925,0.1941,0.1953,0.197,0.1987,0.201,0.2021,0.2041,0.2062,0.2092,0.2105,0.2121,0.2124,0.2127,0.2128,0.2128,0.2127,0.2121,0.2125,0.2125,0.2125,0.2125,0.2125,0,0.1856,0.1871,0.1888,0.1913,0.1928,0.1937,0.1958,0.197,0.1987,0.2005,0.2022,0.2044,0.2064,0.2085,0.2105,0.2113,0.2119,0.2118,0.2118,0.2121,0.2122,0.2119,0.2113,0.2113,0.2113,0.2113,0.2113,0.2113,0.1856,0.1874,0.1886,0.1912,0.1927,0.1946,0.1957,0.1972,0.1988,0.2012,0.2028,0.2042,0.2062,0.2084,0.2101,0.2107,0.2114,0.2111,0.2119,0.212,0.2121,0.2122,0.2119,0.2113,0.2113,0.2116,0.2116,0.2116]},{"header":{"parameterUnit":"m.s-1","parameterCategory":1,"la1":30.2991,"la2":30.254,"lo1":-89.0895,"lo2":-89.0444,"dy":0.0017,"dx":0.0017,"nx":28,"ny":28,"refTime":"2025-05-22T21:00:00:Z","depth":0,"parameterNumber":3,"parameterNumberName":"V-component_of_WINDS"},"data":[0,0,0,0,0,0,0,0,0,0,0,0,0,0,0,0,0,0,0,0,0,0,0,0,0,0,0,0,0,0,0,0,0,0,0,0,0,0,0,0,0,0,0,0,0,0,0,0,0,0,0,0,0,0,0,0,0,0,0.2975,0.2975,0,0.3014,0.3014,0.3014,0.304,0.304,0.304,0.304,0.3079,0.308,0.3081,0,0,0,0,0,0,0,0,0,0,0,0,0,0.292,0.2921,0.2974,0.2975,0.2975,0.3014,0.3014,0.3015,0.304,0.304,0.304,0.304,0.3079,0.308,0.3081,0,0,0,0,0,0,0,0,0,0,0,0,0,0.295,0.2921,0.2974,0.2993,0.2995,0.3013,0.3014,0.3015,0.304,0.304,0.304,0.304,0.3079,0.308,0.3081,0.3085,0,0,0.3086,0.3086,0,0,0,0,0,0,0,0,0.2948,0.2952,0.2989,0.2991,0.2994,0.3022,0.3009,0.3038,0.3039,0.3022,0.304,0.304,0.306,0.3063,0.307,0.3087,0.3089,0.3086,0.3086,0.3087,0.3087,0,0,0,0,0,0,0,0.2946,0.295,0.299,0.299,0.2992,0.2998,0.3003,0.3015,0.3039,0.3024,0.3026,0.303,0.3061,0.3068,0.3071,0.3089,0.3086,0.3087,0.3088,0.3088,0.3111,0.3111,0,0,0,0,0,0,0.2941,0.2949,0.2989,0.2991,0.2971,0.2999,0.3004,0.3013,0.3039,0.3044,0.303,0.3031,0.3066,0.3069,0.3072,0.3078,0.3087,0.3088,0.3089,0.3111,0.3111,0.3111,0,0,0,0,0,0,0.294,0.2945,0.2987,0.297,0.2976,0.3,0.3009,0.3013,0.302,0.3044,0.3048,0.3033,0.3066,0.307,0.3082,0.308,0.3089,0.309,0.3111,0.3111,0.3111,0.309,0,0,0,0,0,0,0.2939,0.2944,0.2946,0.297,0.2977,0.2996,0.3009,0.3014,0.3023,0.3025,0.3048,0.3052,0.3067,0.308,0.3083,0.3082,0.3091,0.3112,0.3111,0.3111,0.3091,0.3089,0.3088,0,0,0,0,0,0.2937,0.2939,0.2946,0.2951,0.298,0.2996,0.3,0.3017,0.3023,0.3025,0.304,0.3051,0.3079,0.308,0.3085,0.3084,0.3112,0.3111,0.3111,0.3092,0.309,0.3088,0,0,0,0,0,0,0.2914,0.2942,0.2951,0.2961,0.2976,0.3,0.3003,0.3014,0.3028,0.3029,0.305,0.3055,0.3064,0.3075,0.3076,0.3089,0.3097,0.3097,0.3081,0.3079,0.3077,0.3075,0.3092,0,0,0,0,0,0.291,0.2921,0.2945,0.2952,0.2959,0.298,0.2987,0.2999,0.3015,0.3022,0.3038,0.3053,0.3065,0.3073,0.3085,0.3093,0.3098,0.3094,0.3092,0.3091,0.3091,0.3095,0.3094,0.3109,0.3109,0.3109,0,0,0.2902,0.2919,0.2925,0.2948,0.2961,0.2971,0.2985,0.2995,0.3003,0.3023,0.3035,0.3047,0.3065,0.3074,0.3079,0.3084,0.3088,0.309,0.3089,0.309,0.3095,0.3093,0.3092,0.3109,0.3109,0.3109,0,0,0.2894,0.2908,0.2915,0.2927,0.2947,0.296,0.2962,0.2985,0.2993,0.3005,0.302,0.303,0.3051,0.3063,0.3072,0.3067,0.3078,0.307,0.3061,0.3065,0.3064,0.3063,0.3061,0.306,0.307,0.307,0.307,0,0.2882,0.2899,0.2917,0.2927,0.2936,0.2954,0.2961,0.2973,0.2995,0.3001,0.3006,0.3032,0.3045,0.3058,0.3056,0.3063,0.3065,0.3068,0.3062,0.3062,0.3061,0.3059,0.3059,0.3069,0.3069,0.3069,0.3069,0,0.2883,0.2894,0.2897,0.2918,0.2928,0.2936,0.2955,0.2963,0.2974,0.2987,0.2998,0.3015,0.3031,0.3035,0.3045,0.3048,0.305,0.3059,0.3067,0.3058,0.3057,0.3057,0.3067,0.3068,0.3068,0.3068,0,0,0.2862,0.2892,0.2893,0.2903,0.2925,0.2934,0.2943,0.2959,0.2965,0.2979,0.2987,0.3003,0.3011,0.3021,0.3033,0.3036,0.3031,0.3044,0.3045,0.3041,0.3035,0.3028,0.3027,0.3038,0.3038,0.3038,0.3033,0,0.2857,0.2874,0.289,0.2901,0.2911,0.2928,0.2936,0.295,0.2962,0.2972,0.2986,0.2997,0.3006,0.3012,0.3017,0.3031,0.303,0.3031,0.3045,0.3046,0.304,0.3027,0.3021,0.3015,0.3033,0.3033,0.3033,0,0.2853,0.2867,0.2879,0.29,0.2904,0.2911,0.2927,0.2936,0.2952,0.2961,0.2971,0.2984,0.2994,0.3001,0.3014,0.3014,0.3021,0.3029,0.3029,0.3031,0.3039,0.3029,0.3014,0.3013,0.3032,0.3032,0.3032,0,0.2836,0.2858,0.2868,0.2875,0.29,0.2904,0.2914,0.2931,0.2939,0.2952,0.2958,0.2972,0.298,0.299,0.3006,0.301,0.3017,0.3026,0.3024,0.3024,0.3025,0.3025,0.3011,0.3029,0.3029,0.3029,0.3029,0,0.2829,0.2836,0.2861,0.2867,0.2874,0.2893,0.29,0.2911,0.2926,0.2934,0.295,0.2957,0.2977,0.2987,0.2999,0.3008,0.3011,0.3018,0.3022,0.3017,0.3016,0.3022,0.3023,0.3029,0.3029,0.3029,0.3029,0,0.2812,0.2829,0.2841,0.2863,0.2869,0.2873,0.2892,0.2898,0.2911,0.2921,0.2925,0.2944,0.2956,0.2973,0.299,0.2999,0.3006,0.3011,0.3,0.3002,0.3,0.3,0.2989,0.2988,0.3006,0.3006,0.3006,0,0.2807,0.2812,0.2835,0.2841,0.2851,0.2862,0.287,0.2888,0.2896,0.2915,0.2918,0.2932,0.2943,0.2962,0.2977,0.299,0.2996,0.2991,0.2998,0.2993,0.2996,0.2995,0.2996,0.299,0.2989,0.2989,0.2989,0,0.2795,0.2803,0.2814,0.2829,0.2838,0.285,0.2863,0.2868,0.2888,0.2896,0.2909,0.2918,0.2935,0.2948,0.2963,0.2973,0.2984,0.2987,0.2987,0.2982,0.2976,0.2979,0.2996,0.2987,0.2987,0.2987,0.2987,0.2987,0.2783,0.2789,0.2805,0.2818,0.2829,0.2841,0.2847,0.2861,0.2872,0.2887,0.2897,0.2909,0.2924,0.2945,0.2955,0.2964,0.2969,0.2969,0.2969,0.2969,0.2968,0.2974,0.2967,0.2967,0.2967,0.2967,0.2967,0,0.2772,0.2784,0.2795,0.2812,0.2822,0.2831,0.2846,0.2853,0.2863,0.2877,0.2887,0.2901,0.2914,0.293,0.2943,0.2947,0.2953,0.295,0.295,0.2952,0.2963,0.2961,0.2946,0.2946,0.2946,0.2946,0.2946,0.2946,0.2768,0.2777,0.2787,0.2802,0.2813,0.2825,0.2833,0.2843,0.2854,0.2869,0.2879,0.289,0.2904,0.2918,0.293,0.2934,0.2938,0.2934,0.294,0.295,0.2952,0.2954,0.2952,0.2935,0.2935,0.2929,0.2929,0.2929]}]]